This is the latest recevied weather packets stored in our database for station/object AA9VI-10. If no packets are shown the sender has not sent any weather packets the latest 10 day(s).
| Time | Temp. | Humidity | Pressure | Rain* | Wind** | Luminosity | Snow |
|---|---|---|---|---|---|---|---|
| 1777849817 | 20.56° C | 40% | 1005.6 hPa | 0 mm | - | - | - |
| 1777849217 | 20.56° C | 40% | 1005.6 hPa | 0 mm | - | - | - |
| 1777848622 | 20.56° C | 42% | 1005.7 hPa | 0 mm | - | - | - |
| 1777848017 | 20° C | 40% | 1005.7 hPa | 0 mm | - | - | - |
| 1777847417 | 20° C | 40% | 1005.7 hPa | 0 mm | - | - | - |
| 1777846817 | 20° C | 40% | 1005.8 hPa | 0 mm | - | - | - |
| 1777846217 | 20° C | 40% | 1005.9 hPa | 0 mm | - | - | - |
| 1777845617 | 19.44° C | 39% | 1006.1 hPa | 0 mm | - | - | - |
| 1777845017 | 19.44° C | 40% | 1006 hPa | 0 mm | - | - | - |
| 1777844417 | 19.44° C | 40% | 1006.2 hPa | 0 mm | - | - | - |
| 1777843817 | 19.44° C | 40% | 1006.4 hPa | 0 mm | - | - | - |
| 1777843217 | 18.89° C | 40% | 1006.5 hPa | 0 mm | - | - | - |
| 1777842617 | 18.33° C | 41% | 1006.6 hPa | 0 mm | - | - | - |
| 1777842017 | 18.89° C | 39% | 1006.7 hPa | 0 mm | - | - | - |
| 1777841417 | 18.89° C | 38% | 1006.9 hPa | 0 mm | - | - | - |
| 1777840817 | 18.89° C | 39% | 1007 hPa | 0 mm | - | - | - |
| 1777840217 | 18.89° C | 38% | 1007.3 hPa | 0 mm | - | - | - |
| 1777839617 | 18.33° C | 40% | 1007.7 hPa | 0 mm | - | - | - |
| 1777839017 | 17.78° C | 45% | 1007.8 hPa | 0 mm | - | - | - |
| 1777838417 | 17.22° C | 47% | 1007.9 hPa | 0 mm | - | - | - |
| 1777837817 | 17.22° C | 47% | 1008.3 hPa | 0 mm | - | - | - |
| 1777837217 | 16.67° C | 49% | 1008.4 hPa | 0 mm | - | - | - |
| 1777836617 | 16.67° C | 49% | 1008.5 hPa | 0 mm | - | - | - |
| 1777836017 | 16.11° C | 50% | 1008.5 hPa | 0 mm | - | - | - |
| 1777835417 | 16.11° C | 49% | 1008.5 hPa | 0 mm | - | - | - |
* Rain latest hour (hover to see other rain measurements)
** Current wind speed in m/s (hover to see current wind gust speed)